KB8TTR Weather Reports


Display with metric or nautical units.
time (UTC)temp
F
wind
direction
speed
MPH
gust
MPH
rain 1hr
in
rain 24hr
in
rain mn
in
humidity
%
barometer
mb
20260903033812 81 13 2.0 3.0 0.00 0.00 0.00 81 1014.5
20260903033307 81 13 1.0 1.0 0.00 0.00 0.00 80 1014.6
20260903032807 81 12 0.0 0.0 0.00 0.00 0.00 80 1014.4
20260903032305 81 11 1.0 1.0 0.00 0.00 0.00 80 1014.1
20260903031758 81 14 1.0 1.0 0.00 0.00 0.00 79 1014.3
20260903031257 82 13 0.0 1.0 0.00 0.00 0.00 79 1014.3
20260903030754 82 13 0.0 1.0 0.00 0.00 0.00 79 1013.8
20260903030249 82 12 0.0 1.0 0.00 0.00 0.00 79 1014.0
20260903025750 82 1 1.0 2.0 0.00 0.00 0.00 79 1014.0
20260903025245 82 12 1.0 1.0 0.00 0.00 0.00 79 1014.3
20260903024740 82 14 1.0 1.0 0.00 0.00 0.00 78 1014.4
20260903024239 82 5 1.0 1.0 0.00 0.00 0.00 78 1014.5
20260903023735 82 11 1.0 1.0 0.00 0.00 0.00 78 1014.7
20260903023231 82 5 1.0 1.0 0.00 0.00 0.00 78 1014.6
20260903022730 82 13 0.0 0.0 0.00 0.00 0.00 79 1014.8
20260903022229 82 12 0.0 0.0 0.00 0.00 0.00 79 1014.8
20260903021724 81 13 0.0 0.0 0.00 0.00 0.00 79 1014.7
20260903021220 81 12 0.0 0.0 0.00 0.00 0.00 79 1014.8
20260903020719 82 13 0.0 0.0 0.00 0.00 0.00 79 1014.9
20260903020214 82 12 0.0 1.0 0.00 0.00 0.00 79 1015.1
20260903015709 82 13 0.0 0.0 0.00 0.00 0.00 79 1015.0
20260903015205 82 11 1.0 1.0 0.00 0.00 0.00 78 1014.9
20260903014700 82 12 0.0 0.0 0.00 0.00 0.00 78 1014.9
20260903014159 83 12 0.0 0.0 0.00 0.00 0.00 77 1014.9
20260903013654 83 13 0.0 0.0 0.00 0.00 0.00 77 1015.1
20260903013154 83 12 0.0 0.0 0.00 0.00 0.00 76 1015.0
20260903012653 83 12 0.0 1.0 0.00 0.00 0.00 76 1014.8
20260903012152 84 12 0.0 0.0 0.00 0.00 0.00 75 1015.0
20260903011653 84 14 0.0 0.0 0.00 0.00 0.00 75 1014.8
20260903011152 84 13 0.0 0.0 0.00 0.00 0.00 75 1014.9
20260903010648 84 12 0.0 1.0 0.00 0.00 0.00 74 1014.5
20260903010147 84 13 0.0 0.0 0.00 0.00 0.00 74 1014.8
20260903005646 84 13 0.0 0.0 0.00 0.00 0.00 74 1014.7
20260903005142 84 12 0.0 1.0 0.00 0.00 0.00 74 1014.4
20260903004637 84 101 0.0 0.0 0.00 0.00 0.00 74 1014.7
20260903004132 84 108 0.0 0.0 0.00 0.00 0.00 73 1014.5
20260903003628 84 107 0.0 0.0 0.00 0.00 0.00 73 1014.8
20260903003123 85 102 0.0 0.0 0.00 0.00 0.00 72 1014.6
20260903002618 85 105 0.0 0.0 0.00 0.00 0.00 72 1014.7
20260903002112 85 101 0.0 0.0 0.00 0.00 0.00 71 1014.6
20260903001607 85 103 0.0 0.0 0.00 0.00 0.00 70 1014.8
20260903001107 86 105 0.0 0.0 0.00 0.00 0.00 70 1014.6
20260903000603 86 103 0.0 0.0 0.00 0.00 0.00 68 1014.8
20260902235601 87 99 0.0 0.0 0.00 0.00 0.00 66 1014.7
20260902235056 87 104 0.0 0.0 0.00 0.00 0.00 65 1014.8
20260902234550 88 103 0.0 1.0 0.00 0.00 0.00 65 1014.8
20260902234049 88 99 0.0 0.0 0.00 0.00 0.00 64 1014.7
20260902233544 89 97 0.0 1.0 0.00 0.00 0.00 63 1014.8
20260902233044 89 93 0.0 0.0 0.00 0.00 0.00 62 1014.5
20260902232538 90 102 1.0 1.0 0.00 0.00 0.00 61 1014.4
20260902232038 90 99 0.0 1.0 0.00 0.00 0.00 60 1014.7
20260902231533 90 119 2.0 2.0 0.00 0.00 0.00 60 1014.6
20260902231033 90 100 1.0 1.0 0.00 0.00 0.00 60 1014.5
20260902230533 90 86 1.0 1.0 0.00 0.00 0.00 60 1014.6
20260902230032 91 108 1.0 1.0 0.00 0.00 0.00 60 1014.6
20260902225528 91 95 1.0 1.0 0.00 0.00 0.00 59 1014.6
20260902225027 91 81 2.0 2.0 0.00 0.00 0.00 59 1014.4
20260902224526 91 82 1.0 2.0 0.00 0.00 0.00 59 1014.6
20260902224022 91 107 1.0 1.0 0.00 0.00 0.00 59 1014.5
20260902223518 91 88 0.0 1.0 0.00 0.00 0.00 58 1014.6
20260902223017 91 83 3.0 3.0 0.00 0.00 0.00 59 1014.4
20260902222516 91 104 0.0 0.0 0.00 0.00 0.00 58 1014.5
20260902222015 91 97 2.0 2.0 0.00 0.00 0.00 59 1014.7
20260902221515 91 80 1.0 1.0 0.00 0.00 0.00 58 1014.6
20260902221010 92 91 1.0 1.0 0.00 0.00 0.00 57 1014.6
20260902220505 92 105 1.0 2.0 0.00 0.00 0.00 57 1014.7
20260902215959 92 108 1.0 1.0 0.00 0.00 0.00 56 1014.5
20260902215456 92 91 2.0 2.0 0.00 0.00 0.00 56 1014.7
20260902214951 92 3 2.0 2.0 0.00 0.00 0.00 55 1014.6
20260902214450 92 89 2.0 2.0 0.00 0.00 0.00 57 1014.7
20260902213944 93 90 1.0 1.0 0.00 0.00 0.00 56 1014.8
20260902213441 93 95 0.0 1.0 0.00 0.00 0.00 56 1014.9
20260902212939 93 53 2.0 2.0 0.00 0.00 0.00 55 1014.9
20260902212436 93 97 2.0 2.0 0.00 0.00 0.00 54 1014.8
20260902211932 93 128 1.0 1.0 0.00 0.00 0.00 54 1014.9
20260902211427 93 354 2.0 2.0 0.00 0.00 0.00 54 1014.9
20260902210922 93 84 2.0 3.0 0.00 0.00 0.00 54 1014.8
20260902210422 93 90 1.0 1.0 0.00 0.00 0.00 55 1015.1
20260902205920 93 92 1.0 1.0 0.00 0.00 0.00 55 1015.0
20260902205415 93 68 1.0 1.0 0.00 0.00 0.00 55 1014.9
20260902204911 93 92 2.0 2.0 0.00 0.00 0.00 54 1014.9
20260902204411 94 155 2.0 3.0 0.00 0.00 0.00 54 1015.0
20260902203907 94 165 1.0 2.0 0.00 0.00 0.00 54 1015.3
20260902203402 94 112 2.0 2.0 0.00 0.00 0.00 55 1015.3
20260902202901 94 113 2.0 2.0 0.00 0.00 0.00 54 1015.2
20260902202357 94 115 1.0 1.0 0.00 0.00 0.00 56 1015.2
20260902201854 94 58 1.0 2.0 0.00 0.00 0.00 54 1015.4
20260902201354 94 84 1.0 1.0 0.00 0.00 0.00 55 1015.5
20260902200849 94 90 2.0 2.0 0.00 0.00 0.00 53 1015.5
20260902200344 95 76 1.0 2.0 0.00 0.00 0.00 54 1015.6
20260902195839 95 96 1.0 2.0 0.00 0.00 0.00 53 1015.5
20260902195338 95 82 2.0 2.0 0.00 0.00 0.00 54 1015.5
20260902194833 94 101 2.0 2.0 0.00 0.00 0.00 55 1015.7
20260902194333 94 84 1.0 1.0 0.00 0.00 0.00 54 1015.6
20260902193829 94 112 2.0 2.0 0.00 0.00 0.00 55 1015.5
20260902193325 94 20 2.0 2.0 0.00 0.00 0.00 55 1015.7
20260902192823 94 24 1.0 1.0 0.00 0.00 0.00 56 1015.7
20260902192322 93 19 1.0 2.0 0.00 0.00 0.00 57 1016.0
20260902191822 93 20 2.0 2.0 0.00 0.00 0.00 56 1015.9
20260902191317 93 354 3.0 6.0 0.00 0.00 0.00 56 1016.2
20260902190812 93 18 1.0 2.0 0.00 0.00 0.00 57 1016.1
20260902190311 93 20 3.0 4.0 0.00 0.00 0.00 58 1016.1
20260902185808 93 20 1.0 1.0 0.00 0.00 0.00 59 1016.1
20260902185306 92 20 2.0 2.0 0.00 0.00 0.00 59 1016.3
20260902184759 93 22 1.0 1.0 0.00 0.00 0.00 59 1016.2
20260902184254 94 21 1.0 1.0 0.00 0.00 0.00 58 1016.2
20260902183749 94 16 1.0 1.0 0.00 0.00 0.00 58 1016.4
20260902183245 94 18 1.0 2.0 0.00 0.00 0.00 57 1016.2
20260902182742 94 13 2.0 2.0 0.00 0.00 0.00 59 1016.2
20260902182238 93 19 1.0 1.0 0.00 0.00 0.00 56 1016.1
20260902181734 94 19 3.0 6.0 0.00 0.00 0.00 54 1016.3
20260902181233 94 18 0.0 0.0 0.00 0.00 0.00 57 1016.3
20260902180728 93 18 0.0 0.0 0.00 0.00 0.00 61 1016.5
20260902180224 93 18 0.0 0.0 0.00 0.00 0.00 61 1016.5
20260902175719 93 18 0.0 0.0 0.00 0.00 0.00 59 1016.7
20260902175215 92 18 0.0 0.0 0.00 0.00 0.00 57 1016.8
20260902174710 92 19 0.0 0.0 0.00 0.00 0.00 59 1016.8
20260902174206 93 16 0.0 0.0 0.00 0.00 0.00 61 1016.9
20260902173702 92 18 0.0 0.0 0.00 0.00 0.00 62 1016.9
20260902173156 91 18 0.0 0.0 0.00 0.00 0.00 62 1017.0
20260902172656 91 18 0.0 0.0 0.00 0.00 0.00 62 1016.9
20260902172155 91 18 0.0 0.0 0.00 0.00 0.00 63 1017.1
20260902171651 91 18 0.0 0.0 0.00 0.00 0.00 64 1017.0
20260902171147 91 17 0.0 1.0 0.00 0.00 0.00 62 1017.4
20260902170643 91 12 0.0 0.0 0.00 0.00 0.00 65 1017.3
20260902170138 91 19 0.0 0.0 0.00 0.00 0.00 64 1017.1
20260902165633 90 22 0.0 0.0 0.00 0.00 0.00 67 1017.3
20260902165132 90 22 0.0 0.0 0.00 0.00 0.00 67 1017.2
20260902164628 90 13 0.0 0.0 0.00 0.00 0.00 67 1017.4
20260902164126 90 22 0.0 0.0 0.00 0.00 0.00 66 1017.5
20260902163622 89 18 0.0 0.0 0.00 0.00 0.00 68 1017.6
20260902163121 88 21 0.0 0.0 0.00 0.00 0.00 68 1017.6
20260902162620 89 21 0.0 0.0 0.00 0.00 0.00 68 1017.6
20260902162115 89 20 0.0 0.0 0.00 0.00 0.00 69 1017.7
20260902161609 90 22 0.0 0.0 0.00 0.00 0.00 66 1017.7
20260902161106 90 19 0.0 0.0 0.00 0.00 0.00 66 1017.5
20260902160602 89 22 0.0 0.0 0.00 0.00 0.00 67 1017.6
20260902160057 88 21 0.0 0.0 0.00 0.00 0.00 68 1017.6
20260902155555 89 22 0.0 1.0 0.00 0.00 0.00 67 1017.5
20260902155054 89 22 0.0 0.0 0.00 0.00 0.00 67 1017.6
20260902154549 89 21 0.0 0.0 0.00 0.00 0.00 67 1017.6
20260902154044 88 22 0.0 0.0 0.00 0.00 0.00 69 1017.5
20260902153542 88 22 0.0 0.0 0.00 0.00 0.00 70 1017.6
20260902153038 88 22 0.0 0.0 0.00 0.00 0.00 69 1017.5
20260902152535 88 22 0.0 0.0 0.00 0.00 0.00 68 1017.4
20260902152030 88 22 0.0 0.0 0.00 0.00 0.00 68 1017.5
20260902151526 88 22 0.0 0.0 0.00 0.00 0.00 69 1017.3
20260902151025 88 22 0.0 0.0 0.00 0.00 0.00 70 1017.5
20260902150521 87 23 0.0 0.0 0.00 0.00 0.00 70 1017.3
20260902150016 88 23 0.0 1.0 0.00 0.00 0.00 68 1017.4
20260902145511 88 24 0.0 0.0 0.00 0.00 0.00 70 1017.3
20260902145005 87 26 0.0 0.0 0.00 0.00 0.00 71 1017.2
20260902144502 87 22 0.0 0.0 0.00 0.00 0.00 71 1017.3
20260902144002 87 24 0.0 0.0 0.00 0.00 0.00 71 1017.3
20260902143457 86 24 0.0 0.0 0.00 0.00 0.00 73 1017.3
20260902142952 86 24 0.0 0.0 0.00 0.00 0.00 73 1017.2
20260902142448 85 24 0.0 0.0 0.00 0.00 0.00 74 1017.3
20260902141948 85 25 0.0 0.0 0.00 0.00 0.00 76 1017.2
20260902141443 84 24 0.0 0.0 0.00 0.00 0.00 76 1017.1
20260902140943 84 25 0.0 0.0 0.00 0.00 0.00 77 1017.3
20260902140439 84 25 0.0 0.0 0.00 0.00 0.00 77 1017.2
20260902135938 84 25 0.0 0.0 0.00 0.00 0.00 78 1017.3
20260902135434 84 25 0.0 0.0 0.00 0.00 0.00 77 1017.4
20260902134933 83 25 0.0 0.0 0.00 0.00 0.00 78 1017.3
20260902134429 83 25 0.0 0.0 0.00 0.00 0.00 79 1017.1
20260902133925 83 25 0.0 0.0 0.00 0.00 0.00 79 1017.3
20260902133424 82 24 0.0 0.0 0.00 0.00 0.00 79 1017.4
20260902132919 82 25 0.0 0.0 0.00 0.00 0.00 80 1017.4
20260902132414 82 25 0.0 0.0 0.00 0.00 0.00 80 1017.4
20260902131909 82 25 0.0 0.0 0.00 0.00 0.00 80 1017.3
20260902131407 82 25 0.0 0.0 0.00 0.00 0.00 81 1017.3
20260902130905 81 25 0.0 0.0 0.00 0.00 0.00 82 1017.3
20260902130402 81 24 0.0 0.0 0.00 0.00 0.00 82 1017.3
20260902125856 80 25 0.0 0.0 0.00 0.00 0.00 83 1017.2
20260902125353 80 25 0.0 0.0 0.00 0.00 0.00 84 1017.0
20260902124848 80 24 0.0 1.0 0.00 0.00 0.00 84 1017.3
20260902124344 80 25 0.0 0.0 0.00 0.00 0.00 84 1017.1
20260902123838 80 25 0.0 0.0 0.00 0.00 0.00 84 1017.2
20260902123335 79 25 0.0 0.0 0.00 0.00 0.00 85 1017.2
20260902122833 79 25 0.0 0.0 0.00 0.00 0.00 85 1017.2
20260902122330 79 25 0.0 0.0 0.00 0.00 0.00 86 1017.3
20260902121830 78 25 0.0 0.0 0.00 0.00 0.00 87 1017.1
20260902121325 78 26 0.0 0.0 0.00 0.00 0.00 87 1017.3
20260902120820 78 26 0.0 0.0 0.00 0.00 0.00 88 1017.1
20260902120316 77 27 0.0 0.0 0.00 0.00 0.00 90 1017.2
20260902115811 76 27 0.0 0.0 0.00 0.00 0.00 91 1017.2
20260902115309 76 27 0.0 0.0 0.00 0.00 0.00 91 1017.1
20260902114803 76 27 0.0 0.0 0.00 0.00 0.00 91 1017.0
20260902114259 76 27 0.0 0.0 0.00 0.00 0.00 91 1017.2
20260902113753 76 27 0.0 0.0 0.00 0.00 0.00 92 1016.9
20260902113248 76 28 0.0 0.0 0.00 0.00 0.00 92 1016.7
20260902112748 76 28 0.0 0.0 0.00 0.00 0.00 92 1016.7
20260902112245 76 28 0.0 0.0 0.00 0.00 0.00 92 1016.6
20260902111740 76 28 0.0 0.0 0.00 0.00 0.00 92 1016.6
20260902111237 76 28 0.0 0.0 0.00 0.00 0.00 93 1016.5
20260902110732 76 28 0.0 0.0 0.00 0.00 0.00 93 1016.8
20260902110228 75 28 0.0 0.0 0.00 0.00 0.00 93 1016.6
20260902105727 75 28 0.0 0.0 0.00 0.00 0.00 93 1016.6
20260902105222 75 28 0.0 0.0 0.00 0.00 0.00 93 1016.8
20260902104718 75 28 0.0 0.0 0.00 0.00 0.00 93 1016.9
20260902104214 75 29 0.0 0.0 0.00 0.00 0.00 94 1016.8
20260902103713 75 30 0.0 0.0 0.00 0.00 0.00 94 1016.8
20260902103208 75 31 0.0 0.0 0.00 0.00 0.00 94 1017.0
20260902102704 75 31 0.0 0.0 0.00 0.00 0.00 95 1016.7
20260902102201 75 69 0.0 0.0 0.00 0.00 0.00 95 1016.6
20260902101701 75 71 0.0 0.0 0.00 0.00 0.00 95 1016.9
20260902101156 75 71 0.0 0.0 0.00 0.00 0.00 95 1016.8
20260902100650 75 71 0.0 0.0 0.00 0.00 0.00 96 1016.7
20260902100145 75 70 0.0 0.0 0.00 0.00 0.00 96 1016.7
20260902095644 74 71 0.0 0.0 0.00 0.00 0.00 96 1016.8
20260902095144 74 71 0.0 0.0 0.00 0.00 0.00 96 1016.7
20260902094639 74 71 0.0 0.0 0.00 0.00 0.00 96 1016.6
20260902094135 74 68 0.0 0.0 0.00 0.00 0.00 96 1016.8
20260902093634 74 68 0.0 0.0 0.00 0.00 0.00 96 1016.7
20260902093130 74 68 0.0 0.0 0.00 0.00 0.00 96 1016.6
20260902092624 74 69 0.0 0.0 0.00 0.00 0.00 96 1016.9
20260902092119 74 68 0.0 0.0 0.00 0.00 0.00 97 1016.6
20260902091614 74 68 0.0 0.0 0.00 0.00 0.00 97 1016.5
20260902091111 74 70 0.0 0.0 0.00 0.00 0.00 97 1016.9
20260902090607 74 70 0.0 0.0 0.00 0.00 0.00 97 1016.7
20260902090106 74 72 0.0 0.0 0.00 0.00 0.00 97 1016.7
20260902085606 74 94 0.0 0.0 0.00 0.00 0.00 97 1016.7
20260902085101 74 97 0.0 0.0 0.00 0.00 0.00 97 1016.7
20260902084557 74 105 0.0 0.0 0.00 0.00 0.00 97 1016.8
20260902084052 74 98 0.0 0.0 0.00 0.00 0.00 97 1016.7
20260902083548 74 97 0.0 0.0 0.00 0.00 0.00 97 1016.7
20260902083047 74 98 0.0 0.0 0.00 0.00 0.00 97 1016.6
20260902082543 74 97 0.0 0.0 0.00 0.00 0.00 97 1016.8
20260902082039 73 98 0.0 0.0 0.00 0.00 0.00 97 1016.5
20260902081536 73 97 0.0 0.0 0.00 0.00 0.00 97 1016.6
20260902081035 73 97 0.0 0.0 0.00 0.00 0.00 97 1016.6
20260902080531 73 97 0.0 0.0 0.00 0.00 0.00 97 1016.6
20260902080027 74 98 0.0 0.0 0.00 0.00 0.00 97 1016.9
20260902075527 74 98 0.0 0.0 0.00 0.00 0.00 97 1016.5
20260902075023 74 72 0.0 0.0 0.00 0.00 0.00 97 1016.6
20260902074518 74 72 0.0 0.0 0.00 0.00 0.00 97 1016.6
20260902074013 74 97 0.0 0.0 0.00 0.00 0.00 97 1016.4
20260902073509 74 98 0.0 0.0 0.00 0.00 0.00 96 1016.4
20260902073006 74 98 0.0 0.0 0.00 0.00 0.00 96 1016.1
20260902072500 74 101 0.0 0.0 0.00 0.00 0.00 96 1016.3
20260902071957 74 101 0.0 0.0 0.00 0.00 0.00 96 1016.3
20260902071456 74 109 0.0 0.0 0.00 0.00 0.00 96 1016.3
20260902070953 74 109 0.0 0.0 0.00 0.00 0.00 96 1016.1
20260902070448 74 109 0.0 0.0 0.00 0.00 0.00 96 1016.2
20260902065947 74 109 0.0 0.0 0.00 0.00 0.00 96 1016.3
20260902065442 73 109 0.0 0.0 0.00 0.00 0.00 96 1016.4
20260902064937 73 109 0.0 0.0 0.00 0.00 0.00 96 1016.3
20260902064433 73 109 0.0 0.0 0.00 0.00 0.00 96 1016.3
20260902063928 73 109 0.0 0.0 0.00 0.00 0.00 95 1016.1
20260902063428 73 109 0.0 0.0 0.00 0.00 0.00 95 1016.3
20260902062923 73 109 0.0 0.0 0.00 0.00 0.00 95 1016.4
20260902062422 73 109 0.0 0.0 0.00 0.00 0.00 95 1016.3
20260902061917 73 109 0.0 0.0 0.00 0.00 0.00 94 1016.5
20260902061412 73 109 0.0 0.0 0.00 0.00 0.00 94 1016.4
20260902060908 73 109 0.0 0.0 0.00 0.00 0.00 94 1016.5
20260902060404 73 109 0.0 0.0 0.00 0.00 0.00 94 1016.6
20260902055900 73 109 0.0 0.0 0.00 0.00 0.00 94 1016.7
20260902055355 73 109 0.0 0.0 0.00 0.00 0.00 94 1016.6
20260902054851 73 110 0.0 0.0 0.00 0.00 0.00 94 1016.8
20260902054346 73 108 0.0 0.0 0.00 0.00 0.00 94 1016.6
20260902053842 73 112 0.0 0.0 0.00 0.00 0.00 94 1016.9
20260902053336 73 100 0.0 0.0 0.00 0.00 0.00 93 1016.9
20260902052835 73 100 0.0 0.0 0.00 0.00 0.00 93 1016.8
20260902052332 73 100 0.0 0.0 0.00 0.00 0.00 92 1016.8
20260902051831 73 100 0.0 0.0 0.00 0.00 0.00 92 1016.8
20260902051326 73 100 0.0 0.0 0.00 0.00 0.00 92 1016.8
20260902050825 73 100 0.0 0.0 0.00 0.00 0.00 92 1016.6
20260902050325 74 100 0.0 0.0 0.00 0.00 0.00 92 1016.6
20260902045820 74 100 0.0 0.0 0.00 0.00 0.00 92 1016.6
20260902045316 74 100 0.0 0.0 0.00 0.00 0.00 91 1016.6
20260902044812 74 100 0.0 0.0 0.00 0.00 0.00 91 1016.8
20260902044308 74 100 0.0 0.0 0.00 0.00 0.00 91 1016.7
20260902043802 74 100 0.0 0.0 0.00 0.00 0.00 90 1016.4
20260902043258 74 100 0.0 0.0 0.00 0.00 0.00 90 1016.6
20260902042757 74 100 0.0 0.0 0.00 0.00 0.00 89 1016.6
20260902042252 75 100 0.0 0.0 0.00 0.00 0.00 89 1016.4
20260902041747 75 100 0.0 0.0 0.00 0.00 0.00 89 1016.6
20260902041247 75 100 0.0 0.0 0.00 0.00 0.00 88 1016.5
20260902040746 75 99 0.0 0.0 0.00 0.00 0.00 87 1016.4
20260902040242 75 99 0.0 0.0 0.00 0.00 0.00 87 1016.3
20260902035740 75 99 0.0 0.0 0.00 0.00 0.00 87 1016.4
20260902035236 75 99 0.0 0.0 0.00 0.00 0.00 86 1016.3
20260902034735 75 101 0.0 0.0 0.00 0.00 0.00 85 1016.2
20260902034230 76 100 0.0 0.0 0.00 0.00 0.00 85 1016.1